Simultaneous Nadir Overpasses (SNOs) Predictions

Prediction of SNOs between GOES-15 and METOP-A Satellite Orbit:

Table of predicted SNOs for the next 14.0 days since TLE Epoch: 6/7/2019
Index Date Time (GOES-15) GOES-15 Lat,Lon METOP-A Lat,Lon Distance(km) Time Diff (sec)
1 06/09/2019 05:45:55 0.16,-128.35 -0.16,-129.74 158.21 80
2 06/10/2019 05:22:36 0.17,-128.34 0.97,-124.76 407.78 80
3 06/11/2019 17:44:09 -0.16,-128.36 0.08,-129.34 112.44 80
4 06/12/2019 17:20:50 -0.17,-128.35 -1.05,-124.37 453.61 80
5 06/14/2019 05:42:31 0.16,-128.29 -0.02,-128.98 79.65 80
6 06/15/2019 05:19:12 0.17,-128.27 1.12,-124.00 485.90 80
7 06/16/2019 17:40:44 -0.16,-128.28 -0.07,-128.59 35.24 80
8 06/19/2019 05:39:06 0.16,-128.19 0.14,-128.22 4.33 80
9 06/21/2019 17:34:40 -0.17,-128.18 -0.23,-127.83 39.28 80




NCC Satellite Simultaneous Nadir Overpasses (SNOs) Prediction Service
